Vorticity
10 10 8 7 10 12 10 6 -2 0 13 14 8 12 15 12 10 10 10 6 3 6 9 8 11 15 15 13 10 9 7 7 9 10 9 7 5 5 4 5 7 7 8 8 8 8 9 10 10 9 8 8 8 9 10 10 9 9 8 7 7 7 6 6 5 6 6 6 5 7 8 7 6 6 7 7 7 7 6 6 5 5 5 6 6
8 6 4 5 6 6 7 11 11 8 9 10 11 16 18 16 14 9 2 -5 -7 0 8 12 13 9 8 9 7 4 5 4 4 6 9 10 8 7 5 5 4 5 6 7 7 7 7 8 9 10 10 10 8 7 8 8 9 9 8 8 7 7 7 6 6 5 5 6 5 5 5 5 5 6 6 6 6 6 6 6 6 6 6 6 5
5 6 6 8 11 10 7 8 6 0 4 11 12 10 13 14 9 1 -2 -4 -3 6 13 10 4 -2 -2 5 5 1 0 2 5 7 9 11 11 9 8 7 6 6 6 6 7 7 6 5 5 7 9 10 11 10 9 8 8 7 6 7 7 7 7 6 6 6 6 6 6 5 5 5 5 5 5 6 6 6 5 5 5 5 6 6 6
6 9 8 7 10 12 13 15 13 9 12 15 11 9 12 11 6 4 5 3 5 17 21 10 4 5 5 5 5 5 4 4 7 7 9 12 11 10 10 8 7 7 5 4 5 5 6 6 5 4 5 6 8 9 10 10 9 9 8 8 8 8 8 8 7 7 7 7 7 7 7 7 7 6 6 6 6 6 7 6 6 6 6 6 6
7 7 6 4 4 8 17 22 14 6 6 9 12 15 12 8 7 6 3 1 5 14 19 17 18 19 17 11 5 5 6 5 4 3 7 14 13 10 10 9 9 10 8 7 6 3 1 0 2 4 5 5 5 5 8 9 9 10 10 10 10 10 10 10 9 9 9 9 9 10 10 10 11 11 11 11 11 10 11 10 10 10 9 9 9
7 5 4 6 5 5 10 9 -1 -4 5 11 11 8 5 5 7 5 -1 -1 7 13 13 13 9 5 10 14 12 11 8 5 7 8 10 16 17 11 8 9 10 11 12 13 13 12 9 7 6 7 7 6 6 5 5 6 7 7 8 7 7 7 6 6 6 6 7 7 7 7 6 6 7 8 8 8 7 7 8 9 9 9 9 10 10
7 6 6 6 5 7 14 17 12 7 10 16 14 7 6 7 6 6 3 1 8 14 14 9 3 0 3 4 4 10 12 8 7 9 8 11 13 10 7 10 12 9 7 8 9 10 13 17 17 15 14 13 12 12 10 7 6 5 4 4 3 3 4 3 3 3 3 3 4 4 4 4 4 4 4 4 4 4 4 5 5 5 5 5 6
10 7 4 2 2 5 9 15 17 9 2 6 10 8 9 12 11 9 8 5 5 6 4 2 4 7 8 5 2 3 7 7 4 4 4 3 5 6 4 4 6 3 0 2 4 4 5 6 6 7 7 5 4 7 10 11 12 11 10 8 7 6 6 5 5 4 4 4 3 3 3 3 3 3 3 3 4 4 4 5 5 4 4 3 2
7 -1 -5 -3 2 5 7 12 12 2 -5 -0 6 6 4 6 9 9 9 10 8 4 1 1 4 8 9 10 6 -0 2 5 2 3 5 2 2 6 3 -1 -2 -2 -3 -1 3 6 5 1 -4 -7 -9 -9 -5 0 5 8 8 8 7 7 7 6 6 6 5 4 5 5 5 5 5 3 3 3 3 3 4 4 4 5 5 5 2 -1 -3
-0 -6 -5 -2 1 3 7 10 5 -2 -2 2 4 4 2 1 4 6 5 7 9 8 7 6 9 13 10 6 3 -1 1 5 4 4 6 4 2 4 3 -0 1 4 4 2 1 3 4 2 -2 -5 -5 -2 4 7 7 5 0 -3 -3 -2 -0 0 -1 -1 -2 -3 -1 1 2 3 3 3 3 2 2 3 4 5 5 5 5 4 1 -2 -2
-1 0 2 3 5 5 5 6 6 5 5 3 2 6 8 7 8 7 4 3 6 9 9 6 5 4 2 3 7 7 6 7 7 6 6 6 5 5 6 6 8 9 9 8 8 6 4 4 3 3 3 4 5 6 7 6 4 2 -0 -2 -0 1 -0 -1 -1 -2 -2 -1 -0 1 1 1 1 1 2 2 2 3 4 4 5 5 5 4 3
3 3 4 6 8 8 7 6 8 6 2 -1 1 6 8 8 8 8 6 6 8 9 9 6 3 2 3 6 9 10 9 9 9 8 7 7 7 7 7 6 6 5 5 6 7 4 2 3 5 5 4 4 3 4 5 5 5 6 7 5 6 6 2 1 1 0 -0 -0 1 4 4 4 4 4 3 3 4 5 4 4 4 4 5 4 2
4 3 6 10 9 8 8 8 7 5 2 2 3 4 6 8 7 6 6 7 10 11 10 7 6 7 6 6 7 9 10 9 9 10 9 9 8 8 7 5 3 2 2 3 3 2 2 5 6 6 5 4 5 4 4 5 4 6 7 7 7 7 5 4 5 5 5 5 6 7 7 7 6 6 6 5 5 5 5 5 5 4 5 5 4
8 9 10 10 6 6 7 6 5 4 3 2 3 5 7 6 5 6 6 6 7 8 9 10 10 7 4 4 7 9 8 7 7 8 8 8 8 8 9 9 9 8 8 8 7 8 9 10 10 9 8 8 6 5 5 5 5 6 6 6 7 8 8 7 7 8 9 10 12 12 13 12 12 11 12 11 11 10 9 9 8 8 8 7 7
2 7 8 8 7 7 6 4 4 4 4 4 6 7 6 5 6 7 5 6 8 8 9 10 9 6 3 3 7 8 7 6 5 6 8 8 9 8 8 8 9 9 10 10 10 11 11 10 10 10 10 10 8 8 8 7 8 9 9 9 9 9 9 11 11 11 11 12 13 13 12 12 11 11 11 11 12 12 12 12 12 12 12 11 10
16 19 16 15 12 8 5 5 4 4 3 3 4 4 5 6 8 6 5 6 7 7 8 7 5 2 0 2 7 9 7 6 6 8 10 11 11 11 11 10 10 10 10 10 10 10 10 11 11 11 11 11 11 11 11 11 10 10 9 9 9 9 10 11 10 10 10 9 8 7 5 5 5 6 7 8 9 9 10 11 11 10 11 12 12
22 24 20 15 12 9 8 6 4 4 4 5 5 6 8 9 8 6 5 5 5 5 5 3 1 -0 -1 3 8 9 8 7 8 11 11 11 12 12 12 12 11 11 11 11 11 11 11 12 12 12 13 14 13 13 13 13 12 11 10 11 10 10 10 9 8 7 6 5 3 2 3 5 6 8 9 9 10 9 9 9 9 9 9 10 11
3 1 -1 -3 -2 2 5 5 6 6 6 7 7 7 10 10 8 7 5 4 6 6 5 4 3 1 1 5 9 10 8 7 8 10 10 10 11 12 13 13 12 12 12 11 11 12 12 11 11 12 12 12 12 13 13 13 12 11 10 9 8 8 7 6 6 5 4 3 4 4 6 7 9 10 10 10 10 10 10 10 9 9 9 9 9
20 16 13 11 10 7 6 9 13 14 14 17 17 15 12 8 6 6 6 6 8 8 7 6 5 4 5 8 10 9 8 9 9 10 10 10 11 11 12 12 13 13 13 12 12 12 11 11 11 10 10 10 11 11 11 11 11 11 11 9 9 8 8 7 7 7 7 7 7 8 10 11 12 12 11 10 10 9 9 9 9 9 10 10 10
16 19 18 16 16 14 11 11 11 10 14 16 12 5 -0 -1 4 8 9 11 12 11 11 10 9 10 12 12 13 12 11 11 10 10 11 12 12 12 12 13 13 13 13 14 13 13 13 13 12 11 11 11 11 11 11 11 11 11 11 10 10 11 11 11 11 10 11 11 10 11 11 11 10 10 10 10 10 10 10 10 10 10 11 11 11
-12 -9 -9 -9 -4 3 9 10 5 5 9 5 -6 -12 -10 -1 9 13 11 11 12 12 14 16 17 17 17 15 15 15 14 13 12 11 12 12 11 12 13 12 12 12 13 13 14 14 14 15 15 14 14 13 13 13 12 12 12 12 12 12 12 12 12 12 12 13 12 12 12 11 11 10 10 10 11 10 10 10 11 12 13 14 14 15 15
-9 -12 -12 -9 -7 -6 -4 -5 -7 -4 -2 -8 -13 -10 -1 8 12 11 8 9 10 11 12 13 13 14 13 13 13 13 13 13 13 12 12 12 12 12 11 10 10 10 10 11 11 11 12 14 15 15 15 15 15 15 14 14 14 13 13 13 13 13 14 14 13 13 13 12 12 12 11 11 11 11 12 13 14 15 16 17 18 19 19 19 19
6 6 8 11 12 8 4 2 2 3 2 1 2 7 11 13 13 11 10 10 10 10 9 8 9 10 11 11 11 11 11 11 12 12 12 12 11 10 9 9 9 9 9 8 8 9 10 11 11 11 12 13 13 14 14 14 14 14 13 13 12 12 12 13 13 13 13 13 13 13 13 14 15 16 17 18 18 18 17 17 17 17 16 16 16
10 11 13 15 16 17 17 16 15 14 13 13 13 13 12 12 11 10 9 9 9 9 8 9 10 11 10 10 11 11 11 11 12 11 11 10 10 9 9 9 8 8 9 8 8 9 9 8 8 8 9 10 10 12 13 14 15 16 15 15 15 15 15 15 15 15 15 15 15 16 18 19 19 18 17 16 16 15 14 14 14 14 14 14 13
10 9 9 10 10 12 13 13 14 15 14 13 11 10 10 10 10 10 10 9 9 8 7 8 9 8 8 8 9 10 9 10 11 11 11 11 10 9 9 9 9 9 9 8 9 9 9 9 9 9 9 9 9 10 12 13 14 15 16 16 16 16 17 17 17 17 18 19 19 17 15 15 15 15 15 15 15 15 15 14 14 13 11 10 8
7 7 7 7 8 7 7 7 10 12 12 11 11 11 11 10 10 10 10 11 11 11 11 11 9 8 7 8 9 10 10 11 12 14 14 12 11 10 9 9 9 9 9 9 10 11 11 11 11 10 11 12 11 11 10 10 11 12 14 14 14 14 16 17 17 16 15 15 16 16 17 19 19 19 17 16 14 13 12 11 9 7 4 3 1
8 8 8 8 9 10 9 10 11 10 9 8 9 10 11 11 12 12 13 13 13 13 13 13 12 12 11 11 12 12 12 13 14 14 14 13 12 12 11 11 11 11 10 10 11 12 13 13 13 14 14 13 12 11 10 11 12 12 12 12 13 14 14 14 15 16 18 21 23 24 22 19 16 12 10 8 7 6 4 3 2 2 2 3 4
8 9 10 10 10 10 11 12 13 13 13 12 13 13 12 11 11 12 12 12 12 13 13 13 14 14 13 13 13 13 13 13 13 13 13 12 12 13 14 14 12 11 11 12 13 15 15 15 16 16 15 13 12 11 11 11 11 10 11 11 12 13 14 18 23 26 27 25 20 15 11 7 6 6 5 5 4 4 3 3 2 4 7 11 14
11 11 11 12 12 12 12 12 12 13 15 16 16 15 13 12 11 11 11 12 13 14 14 14 15 15 15 14 14 14 13 12 11 10 10 10 12 13 13 12 11 11 14 15 15 16 16 15 14 13 12 12 11 10 10 9 9 10 11 11 14 19 25 28 26 22 16 10 6 4 5 5 5 6 6 6 5 4 3 5 8 14 21 26 30
14 14 14 14 13 13 13 13 13 14 14 16 17 16 15 14 13 12 12 13 14 14 15 15 14 14 14 14 13 13 13 12 11 11 10 11 12 13 11 11 11 12 14 15 14 14 13 11 11 10 10 10 9 8 9 9 10 12 14 18 24 28 26 20 12 5 3 3 4 6 6 6 7 7 5 4 4 7 13 21 28 34 37 36 35
16 16 15 15 15 14 14 14 15 14 14 14 15 15 14 14 14 14 14 13 13 13 13 13 13 13 13 12 12 13 13 12 11 12 11 12 13 14 12 10 11 12 13 13 13 12 11 11 11 10 10 9 9 10 11 12 15 18 22 26 27 21 11 5 2 2 4 6 6 7 8 8 6 4 5 9 17 27 35 38 38 35 31 28 26
13 13 14 14 15 15 16 17 17 16 15 14 14 14 15 15 14 14 14 13 12 12 12 12 12 12 12 11 12 12 12 12 12 12 12 12 13 13 11 10 11 14 14 13 13 13 13 13 13 12 11 11 11 13 15 17 21 24 25 23 16 7 2 1 3 5 6 7 7 8 8 5 4 8 19 30 37 40 38 34 30 27 24 22 20
12 11 11 11 11 12 13 14 15 15 15 15 15 15 16 15 15 15 15 14 14 14 14 14 15 14 14 14 14 13 13 12 12 12 12 12 11 11 11 11 12 14 14 14 14 14 14 14 13 13 12 13 14 17 19 22 24 23 18 11 4 2 3 3 5 7 8 8 9 8 5 5 13 27 37 40 37 33 28 24 20 16 13 12 12
16 15 13 12 10 10 10 10 11 12 13 13 14 14 15 15 16 16 15 15 15 15 16 16 15 15 15 15 14 14 14 14 14 14 14 13 12 11 11 13 14 15 15 15 16 17 16 16 15 14 14 15 18 20 22 22 19 15 8 3 1 2 3 4 7 8 8 9 8 5 6 17 31 40 40 33 24 18 15 11 10 11 13 15 17
18 16 15 14 13 12 12 12 11 11 11 11 11 12 12 12 13 13 14 15 15 15 16 16 15 14 15 15 14 13 13 13 13 13 14 15 14 14 16 18 18 18 18 19 19 18 17 16 15 16 17 20 21 20 19 16 12 8 4 2 2 2 3 6 9 8 8 8 5 5 17 33 37 30 23 16 11 10 13 15 18 19 19 17 14
30 27 24 20 18 16 15 15 14 13 13 13 12 12 12 12 12 13 13 13 13 14 14 14 13 13 13 14 13 12 13 14 16 16 16 16 17 18 20 22 21 21 22 21 19 18 17 18 19 19 20 19 17 15 14 12 8 4 2 1 2 3 5 8 9 8 8 7 5 14 32 38 24 10 10 14 17 20 21 19 16 14 11 10 12
26 29 30 28 25 23 20 19 17 15 14 14 14 14 15 14 13 13 13 13 15 15 13 13 15 14 13 14 14 14 15 17 20 20 20 21 23 24 25 24 22 22 21 20 20 20 20 20 19 17 16 15 13 13 12 9 6 3 1 1 2 4 8 11 10 8 7 5 9 26 39 30 11 9 19 23 19 17 14 11 12 14 16 17 18
3 8 19 26 28 25 21 20 19 18 18 19 19 18 17 16 15 15 15 15 16 16 15 14 15 16 16 18 19 18 19 23 27 27 25 26 27 27 25 22 21 21 21 21 22 20 16 14 13 13 13 13 13 12 10 7 4 2 1 1 3 5 9 11 9 7 6 6 17 35 37 19 9 17 23 18 11 10 11 14 16 17 17 18 18
13 15 22 27 26 25 23 23 23 23 23 23 22 19 17 17 16 16 15 14 15 17 18 18 18 20 22 23 24 26 30 33 31 26 24 25 24 22 21 20 20 21 20 17 14 11 9 10 12 14 14 13 11 10 7 5 3 2 1 2 3 6 9 9 6 6 6 8 22 36 31 16 14 21 18 10 10 13 14 14 11 8 9 12 15
28 26 26 24 22 23 26 27 27 27 27 26 24 22 19 19 19 19 19 20 21 23 25 25 26 28 27 26 29 34 33 26 20 18 19 20 19 17 15 14 13 13 10 7 6 7 10 13 15 14 13 11 9 8 6 4 3 3 2 2 4 7 8 7 6 7 6 8 20 34 31 18 16 16 10 6 10 13 13 12 9 6 5 5 8
13 12 19 25 26 26 29 29 29 29 28 26 24 23 22 24 26 27 28 30 31 33 35 35 33 29 24 27 33 31 19 8 7 11 13 11 11 13 13 10 9 9 8 7 8 10 12 14 14 12 10 9 8 7 5 4 4 3 2 2 5 7 8 6 6 7 7 7 16 31 34 24 14 10 7 4 4 7 9 10 11 11 8 6 9
15 20 27 29 25 22 23 25 26 27 25 24 25 28 32 35 37 38 38 37 35 33 32 31 27 22 20 24 25 16 4 2 8 12 9 5 5 9 12 12 11 11 10 10 11 12 14 14 12 10 9 8 7 6 6 5 5 3 1 3 5 7 8 7 6 7 8 6 11 26 36 30 15 6 5 2 -0 2 7 9 12 16 14 8 11
18 16 13 12 14 16 14 12 16 23 26 27 29 31 29 27 24 22 19 17 14 13 12 14 16 15 14 12 6 -0 0 7 11 11 9 7 5 7 11 12 10 8 9 11 13 13 13 11 10 9 9 8 8 8 7 5 4 3 2 3 5 7 8 7 6 7 7 6 7 19 34 36 22 7 3 3 0 1 5 6 11 18 17 9 11
6 7 11 18 25 28 24 21 25 30 30 26 23 19 15 14 13 12 11 11 10 9 7 8 8 7 4 0 -3 -2 4 9 9 7 7 8 7 8 10 9 9 10 11 12 11 10 10 10 10 9 10 10 9 8 7 5 4 3 2 3 6 9 8 6 6 6 5 4 6 12 26 38 34 16 3 1 2 2 2 3 8 17 16 8 7
11 16 22 25 27 29 28 27 28 27 20 13 9 5 5 9 15 17 17 17 15 11 8 9 8 5 3 3 6 8 10 10 9 7 8 9 9 9 9 9 10 11 10 9 8 8 9 10 10 10 11 11 10 8 7 6 4 3 3 5 7 9 8 6 7 7 4 3 5 7 15 31 41 31 12 1 1 3 3 1 4 12 14 8 4
12 16 19 17 17 19 18 14 14 14 12 9 8 4 1 3 7 9 10 10 10 10 10 11 11 11 12 15 17 16 15 13 12 11 11 12 11 10 10 10 10 8 7 7 8 9 10 10 10 10 11 10 9 8 7 6 4 4 6 7 7 9 9 7 7 8 5 2 4 6 8 17 34 41 30 11 -0 1 4 2 1 6 11 11 8
27 28 26 20 14 12 10 9 10 12 10 7 6 5 3 5 8 9 10 10 11 13 14 13 13 14 13 12 12 11 11 14 16 15 15 14 12 10 8 8 6 6 7 8 9 10 10 9 9 10 9 9 9 8 7 7 6 6 7 8 8 9 9 7 6 7 6 3 3 5 6 7 17 34 42 30 10 1 2 3 0 0 5 10 12
27 25 24 21 20 18 17 16 17 16 14 12 11 10 11 12 14 14 14 12 13 14 15 14 13 12 10 10 12 14 17 19 19 17 15 12 9 7 6 6 6 7 8 8 9 10 9 8 8 9 8 8 8 8 7 7 7 7 7 8 9 9 8 7 6 5 6 5 4 4 5 5 6 17 36 44 30 10 1 2 4 1 -1 3 11
15 16 15 15 15 15 15 14 15 16 17 17 18 18 19 19 18 17 16 16 16 15 13 11 10 11 13 16 19 20 20 18 15 11 8 6 5 5 6 7 8 8 7 8 9 9 8 8 7 7 7 8 8 8 8 7 8 8 8 9 9 9 8 8 7 5 5 7 6 3 3 6 5 5 18 37 43 29 10 2 5 4 -1 -1 7
9 13 14 12 9 10 11 12 13 14 14 14 15 18 20 21 20 18 16 15 14 12 12 12 14 17 18 19 17 15 13 10 7 5 4 4 5 7 7 8 7 7 7 8 9 8 8 8 7 7 7 8 8 8 8 8 8 8 9 9 9 10 9 7 7 7 6 5 6 5 3 5 6 5 6 18 36 42 28 10 4 6 3 -1 2
5 8 11 12 10 9 8 8 9 11 13 14 14 14 15 16 17 18 18 17 16 15 16 17 17 16 14 12 10 8 7 5 4 4 6 7 8 8 7 7 7 8 8 9 9 8 7 7 7 7 8 9 9 9 9 9 8 9 9 9 9 9 9 8 7 8 6 4 4 6 5 4 5 7 5 6 19 36 40 25 10 5 4 1 2
Height
5729 5729 5729 5728 5728 5728 5728 5728 5728 5728 5729 5730 5730 5730 5729 5728 5728 5728 5729 5731 5732 5733 5733 5733 5733 5733 5733 5734 5734 5734 5734 5735 5735 5736 5736 5737 5737 5737 5737 5737 5737 5738 5738 5738 5738 5738 5738 5738 5738 5738 5738 5738 5738 5738 5737 5737 5737 5737 5737 5738 5738 5738 5738 5738 5738 5738 5738 5739 5739 5739 5740 5740 5741 5741 5741 5741 5741 5741 5741 5741 5741 5741 5741 5741 5741
5727 5727 5726 5726 5725 5725 5725 5725 5725 5726 5727 5728 5728 5728 5727 5727 5727 5727 5727 5728 5729 5730 5730 5730 5730 5730 5730 5731 5731 5732 5732 5733 5733 5734 5734 5735 5735 5734 5734 5735 5735 5735 5736 5736 5736 5737 5737 5737 5737 5737 5736 5736 5736 5736 5736 5736 5736 5736 5735 5736 5736 5736 5736 5736 5736 5736 5736 5736 5737 5737 5737 5738 5738 5738 5738 5739 5739 5739 5739 5739 5739 5739 5739 5739 5739
5723 5724 5724 5724 5724 5724 5724 5723 5723 5724 5725 5725 5725 5725 5725 5725 5725 5725 5726 5726 5727 5727 5726 5727 5727 5727 5727 5727 5727 5728 5729 5730 5730 5731 5732 5732 5732 5732 5732 5732 5733 5733 5733 5734 5734 5734 5734 5734 5734 5735 5734 5734 5734 5734 5734 5734 5734 5734 5734 5734 5734 5734 5734 5734 5734 5734 5734 5734 5734 5735 5735 5735 5735 5736 5736 5736 5736 5736 5736 5736 5736 5736 5736 5736 5736
5720 5721 5721 5721 5722 5722 5722 5722 5722 5722 5722 5723 5723 5723 5723 5723 5723 5724 5724 5725 5725 5725 5724 5724 5724 5725 5725 5725 5724 5725 5725 5726 5727 5728 5728 5729 5729 5729 5730 5730 5730 5730 5731 5731 5731 5731 5732 5732 5732 5732 5732 5732 5732 5732 5732 5732 5732 5732 5732 5732 5732 5732 5732 5732 5732 5732 5732 5732 5732 5732 5732 5732 5733 5733 5733 5733 5733 5733 5733 5733 5733 5733 5733 5733 5732
5716 5717 5718 5718 5718 5719 5719 5719 5719 5719 5720 5720 5719 5720 5720 5721 5721 5721 5722 5722 5722 5722 5722 5722 5722 5722 5722 5722 5722 5722 5722 5723 5723 5724 5725 5726 5726 5726 5727 5727 5728 5728 5728 5728 5728 5728 5728 5729 5729 5729 5729 5729 5729 5729 5729 5730 5730 5730 5730 5730 5730 5730 5730 5730 5729 5729 5729 5729 5728 5729 5729 5729 5729 5730 5730 5730 5730 5730 5730 5730 5730 5730 5729 5729 5729
5713 5713 5714 5714 5714 5715 5715 5716 5716 5716 5717 5716 5716 5717 5717 5718 5718 5718 5719 5719 5719 5719 5719 5719 5719 5719 5720 5720 5720 5720 5720 5720 5720 5721 5721 5722 5723 5723 5724 5724 5724 5725 5725 5725 5725 5725 5725 5725 5726 5726 5726 5727 5726 5726 5726 5727 5727 5727 5727 5727 5727 5727 5727 5726 5726 5726 5726 5726 5725 5725 5725 5725 5725 5726 5726 5727 5727 5727 5727 5726 5726 5726 5726 5726 5725
5709 5710 5710 5711 5711 5711 5711 5712 5712 5712 5712 5712 5713 5713 5714 5715 5715 5715 5715 5715 5715 5715 5715 5716 5716 5716 5717 5717 5717 5717 5717 5717 5717 5717 5718 5718 5719 5720 5721 5721 5721 5721 5722 5722 5722 5722 5722 5722 5722 5722 5723 5723 5723 5723 5723 5723 5724 5724 5724 5724 5724 5723 5723 5723 5723 5723 5723 5723 5723 5722 5722 5721 5721 5721 5722 5722 5723 5723 5723 5723 5722 5721 5722 5722 5721
5705 5706 5706 5707 5707 5707 5707 5708 5708 5708 5708 5709 5709 5709 5710 5711 5711 5711 5711 5711 5711 5711 5711 5712 5712 5713 5713 5714 5714 5714 5714 5713 5714 5714 5715 5715 5716 5716 5717 5718 5718 5718 5718 5718 5718 5718 5718 5718 5719 5719 5719 5719 5720 5720 5720 5720 5720 5720 5720 5720 5720 5720 5719 5719 5720 5720 5720 5719 5719 5719 5719 5718 5718 5718 5717 5717 5717 5718 5718 5719 5718 5717 5717 5717 5717
5701 5702 5702 5703 5703 5703 5703 5704 5704 5704 5705 5705 5705 5705 5706 5707 5707 5707 5706 5706 5707 5707 5707 5707 5707 5708 5709 5710 5711 5710 5709 5709 5710 5711 5712 5712 5712 5713 5713 5713 5714 5714 5714 5714 5714 5715 5715 5715 5715 5715 5715 5715 5716 5717 5717 5717 5717 5717 5717 5717 5717 5717 5716 5716 5716 5716 5716 5715 5715 5715 5715 5715 5714 5714 5714 5713 5713 5712 5712 5713 5713 5713 5712 5712 5711
5697 5697 5697 5698 5699 5699 5699 5700 5700 5700 5701 5701 5702 5703 5703 5703 5703 5703 5703 5703 5703 5703 5703 5702 5703 5704 5705 5706 5706 5705 5704 5705 5706 5707 5708 5708 5708 5709 5709 5709 5709 5709 5709 5709 5709 5710 5710 5710 5710 5710 5710 5711 5711 5712 5712 5713 5713 5713 5713 5713 5713 5713 5712 5712 5712 5712 5711 5711 5711 5711 5711 5710 5709 5709 5709 5708 5708 5707 5707 5707 5707 5707 5707 5707 5706
5691 5691 5691 5692 5693 5693 5694 5694 5694 5694 5695 5696 5697 5698 5698 5698 5698 5698 5698 5699 5699 5699 5699 5698 5699 5699 5699 5700 5700 5699 5700 5701 5702 5703 5703 5703 5704 5704 5704 5704 5704 5704 5704 5704 5704 5704 5704 5705 5705 5705 5705 5705 5705 5706 5706 5707 5707 5707 5708 5708 5708 5708 5707 5706 5706 5706 5706 5706 5706 5706 5705 5705 5704 5703 5703 5703 5702 5702 5701 5701 5701 5701 5701 5701 5701
5685 5685 5685 5685 5686 5687 5688 5688 5688 5689 5689 5690 5691 5692 5692 5692 5693 5693 5693 5693 5694 5694 5694 5693 5693 5693 5692 5693 5693 5694 5694 5695 5696 5697 5697 5697 5698 5698 5698 5698 5698 5698 5699 5699 5699 5700 5700 5700 5700 5700 5700 5699 5699 5699 5699 5699 5700 5700 5701 5702 5702 5702 5702 5701 5700 5699 5700 5700 5700 5699 5699 5699 5698 5697 5696 5696 5696 5695 5695 5694 5694 5694 5694 5694 5695
5679 5679 5680 5680 5680 5681 5682 5683 5683 5684 5685 5685 5686 5687 5687 5687 5688 5688 5687 5688 5687 5687 5687 5687 5687 5687 5687 5687 5688 5688 5688 5689 5690 5691 5691 5692 5692 5692 5692 5692 5693 5694 5694 5694 5694 5694 5695 5695 5695 5695 5695 5694 5694 5693 5693 5692 5692 5693 5693 5694 5694 5694 5695 5694 5693 5692 5692 5693 5692 5692 5692 5691 5691 5690 5689 5689 5688 5688 5687 5687 5686 5686 5686 5686 5687
5674 5675 5675 5675 5675 5676 5676 5677 5678 5679 5679 5680 5681 5681 5682 5682 5682 5682 5682 5682 5682 5681 5681 5681 5681 5682 5681 5682 5682 5683 5683 5683 5684 5685 5685 5686 5686 5687 5687 5687 5687 5688 5688 5688 5689 5689 5689 5689 5689 5689 5689 5688 5688 5687 5687 5686 5686 5686 5686 5686 5687 5687 5687 5687 5686 5685 5684 5684 5685 5685 5685 5684 5683 5683 5682 5681 5681 5680 5680 5680 5679 5678 5678 5678 5678
5668 5669 5669 5669 5670 5670 5671 5671 5672 5673 5673 5674 5675 5676 5676 5676 5676 5676 5676 5676 5676 5675 5675 5675 5675 5676 5676 5676 5676 5676 5677 5677 5678 5678 5679 5680 5680 5681 5681 5681 5681 5681 5682 5682 5682 5682 5682 5682 5682 5682 5682 5682 5682 5681 5681 5681 5680 5680 5680 5680 5680 5680 5680 5679 5679 5678 5677 5677 5678 5677 5677 5676 5676 5675 5674 5673 5672 5672 5672 5672 5671 5670 5670 5670 5670
5662 5662 5662 5663 5663 5663 5664 5664 5665 5666 5667 5668 5669 5670 5670 5671 5671 5671 5670 5670 5670 5670 5670 5669 5669 5669 5670 5670 5670 5670 5670 5670 5671 5671 5672 5673 5673 5674 5675 5675 5675 5675 5675 5675 5675 5676 5676 5676 5675 5675 5675 5675 5675 5675 5675 5674 5674 5673 5673 5673 5673 5673 5672 5672 5672 5671 5671 5671 5670 5670 5669 5668 5668 5667 5666 5665 5664 5663 5663 5663 5662 5661 5662 5663 5662
5655 5655 5656 5656 5656 5657 5657 5658 5658 5659 5659 5660 5661 5663 5663 5664 5664 5664 5664 5664 5664 5664 5664 5664 5664 5664 5664 5664 5664 5664 5664 5664 5664 5665 5665 5666 5666 5667 5667 5668 5668 5668 5668 5668 5668 5669 5669 5669 5669 5668 5668 5668 5668 5668 5668 5667 5667 5667 5666 5666 5666 5665 5665 5665 5665 5664 5664 5663 5662 5662 5661 5660 5659 5658 5657 5656 5655 5654 5654 5654 5653 5652 5653 5653 5653
5649 5649 5649 5650 5650 5650 5651 5651 5651 5651 5652 5653 5654 5655 5656 5656 5657 5657 5657 5658 5658 5658 5657 5657 5657 5657 5657 5658 5658 5658 5658 5658 5658 5659 5659 5659 5660 5660 5661 5661 5661 5661 5661 5661 5661 5661 5662 5662 5662 5661 5661 5661 5661 5661 5661 5660 5660 5659 5659 5659 5658 5658 5658 5658 5657 5656 5656 5655 5655 5654 5653 5652 5651 5650 5648 5647 5646 5645 5645 5645 5644 5643 5643 5643 5643
5643 5643 5643 5643 5643 5643 5644 5644 5645 5645 5645 5646 5647 5648 5648 5649 5649 5650 5650 5650 5650 5650 5650 5650 5650 5650 5650 5651 5651 5652 5652 5652 5653 5653 5653 5653 5653 5654 5654 5654 5654 5654 5654 5654 5654 5654 5654 5654 5654 5654 5654 5654 5654 5654 5653 5653 5653 5652 5652 5652 5651 5651 5650 5650 5649 5649 5648 5647 5647 5646 5645 5644 5642 5641 5640 5639 5638 5636 5636 5636 5635 5634 5634 5634 5633
5636 5636 5636 5636 5635 5635 5636 5638 5638 5639 5639 5639 5640 5641 5642 5643 5643 5643 5643 5643 5642 5642 5642 5643 5642 5642 5643 5643 5644 5645 5645 5646 5647 5647 5647 5647 5647 5647 5648 5648 5648 5648 5647 5647 5647 5647 5647 5647 5647 5647 5647 5646 5646 5646 5646 5646 5646 5645 5645 5644 5643 5643 5643 5642 5642 5641 5640 5640 5638 5637 5636 5635 5634 5633 5631 5630 5629 5628 5627 5626 5626 5625 5624 5624 5624
5630 5630 5629 5629 5628 5628 5629 5630 5632 5632 5632 5633 5633 5634 5635 5635 5636 5636 5636 5636 5636 5636 5636 5635 5635 5635 5636 5636 5636 5637 5638 5639 5639 5640 5641 5641 5641 5641 5642 5641 5641 5641 5641 5641 5640 5640 5640 5640 5640 5640 5640 5640 5640 5639 5639 5639 5638 5638 5637 5637 5636 5636 5635 5634 5634 5633 5632 5631 5630 5629 5628 5627 5625 5624 5623 5622 5621 5620 5619 5617 5616 5615 5614 5614 5614
5623 5623 5623 5623 5622 5622 5623 5623 5624 5625 5625 5625 5626 5626 5627 5627 5628 5629 5629 5630 5630 5630 5630 5630 5629 5629 5629 5630 5630 5631 5631 5632 5632 5633 5634 5634 5634 5635 5635 5635 5635 5635 5635 5635 5634 5634 5633 5634 5634 5634 5634 5634 5633 5633 5632 5632 5631 5630 5630 5629 5629 5628 5627 5627 5626 5625 5624 5623 5622 5621 5620 5619 5618 5616 5615 5614 5613 5611 5610 5609 5607 5606 5605 5604 5603
5614 5615 5615 5616 5616 5616 5616 5616 5617 5617 5617 5617 5617 5618 5618 5619 5620 5621 5622 5622 5623 5623 5623 5623 5623 5623 5623 5624 5624 5625 5625 5626 5626 5626 5627 5627 5627 5627 5628 5629 5629 5629 5629 5629 5628 5628 5628 5628 5628 5628 5627 5627 5627 5626 5626 5625 5624 5624 5623 5622 5621 5621 5620 5619 5618 5617 5616 5615 5615 5614 5612 5611 5610 5609 5607 5606 5605 5604 5602 5601 5599 5598 5597 5596 5594
5605 5606 5607 5608 5609 5609 5609 5609 5609 5609 5609 5609 5609 5610 5610 5611 5612 5613 5614 5615 5615 5616 5616 5617 5617 5617 5617 5617 5617 5618 5618 5619 5619 5620 5620 5621 5621 5621 5621 5622 5622 5622 5622 5623 5623 5623 5622 5622 5622 5622 5621 5621 5621 5620 5620 5619 5618 5618 5617 5616 5615 5614 5613 5612 5611 5610 5609 5608 5607 5607 5605 5604 5602 5601 5600 5599 5598 5596 5595 5593 5592 5591 5589 5588 5586
5596 5598 5599 5600 5601 5602 5602 5602 5602 5602 5601 5601 5601 5602 5603 5604 5605 5605 5606 5607 5608 5609 5609 5610 5610 5610 5610 5610 5610 5611 5612 5612 5613 5613 5614 5614 5614 5614 5615 5615 5616 5616 5616 5617 5617 5617 5617 5616 5616 5616 5616 5615 5615 5615 5614 5614 5613 5612 5611 5610 5609 5607 5606 5606 5605 5604 5603 5602 5601 5600 5598 5597 5596 5595 5593 5592 5591 5589 5587 5586 5585 5583 5582 5581 5579
5587 5588 5590 5591 5593 5594 5594 5594 5594 5594 5594 5594 5594 5594 5595 5596 5597 5598 5599 5600 5601 5602 5602 5602 5603 5603 5603 5603 5603 5604 5605 5605 5606 5607 5608 5608 5608 5608 5608 5609 5610 5610 5610 5611 5611 5611 5611 5611 5610 5610 5610 5610 5610 5609 5609 5608 5607 5606 5605 5604 5603 5602 5601 5600 5599 5598 5597 5596 5595 5594 5592 5591 5590 5588 5587 5586 5584 5582 5580 5579 5578 5577 5575 5573 5572
5578 5579 5580 5582 5583 5585 5586 5586 5586 5586 5586 5586 5586 5587 5587 5589 5590 5591 5592 5593 5594 5594 5595 5595 5595 5595 5595 5595 5596 5597 5598 5599 5599 5600 5601 5601 5602 5602 5603 5603 5604 5604 5604 5605 5605 5605 5605 5605 5605 5605 5605 5605 5604 5604 5603 5603 5602 5601 5600 5599 5598 5597 5596 5595 5594 5592 5591 5590 5589 5588 5587 5586 5584 5583 5581 5580 5578 5576 5574 5572 5571 5569 5567 5565 5563
5569 5570 5571 5572 5573 5575 5576 5577 5578 5579 5579 5579 5579 5580 5580 5581 5583 5584 5585 5586 5586 5587 5588 5588 5589 5589 5589 5589 5590 5590 5591 5592 5592 5593 5594 5595 5595 5596 5597 5597 5598 5598 5598 5599 5599 5599 5599 5599 5599 5599 5599 5599 5599 5598 5598 5597 5597 5596 5595 5594 5593 5592 5591 5590 5588 5587 5586 5585 5584 5583 5582 5581 5579 5578 5576 5574 5572 5569 5567 5565 5562 5560 5558 5555 5553
5561 5562 5562 5563 5564 5565 5566 5568 5569 5570 5571 5572 5572 5573 5573 5574 5576 5577 5577 5578 5579 5580 5580 5581 5582 5582 5582 5583 5583 5584 5584 5585 5586 5587 5587 5588 5589 5590 5591 5591 5591 5592 5592 5592 5593 5593 5594 5594 5594 5594 5594 5594 5594 5593 5593 5592 5592 5591 5590 5589 5588 5587 5585 5584 5584 5583 5582 5581 5580 5579 5577 5576 5574 5572 5570 5567 5564 5561 5558 5556 5553 5550 5547 5545 5542
5552 5553 5553 5554 5555 5556 5557 5558 5560 5562 5563 5565 5565 5566 5567 5567 5568 5569 5570 5571 5572 5573 5574 5574 5575 5575 5576 5577 5577 5578 5578 5579 5580 5581 5581 5582 5583 5584 5584 5585 5585 5586 5586 5587 5587 5588 5588 5589 5589 5589 5589 5589 5588 5588 5588 5587 5587 5586 5585 5584 5583 5582 5581 5581 5580 5579 5578 5577 5576 5574 5572 5570 5568 5566 5563 5560 5556 5552 5549 5545 5543 5540 5538 5536 5533
5543 5544 5545 5545 5546 5547 5549 5550 5552 5553 5555 5557 5558 5559 5560 5561 5562 5563 5563 5564 5565 5566 5567 5567 5568 5569 5570 5570 5571 5572 5572 5573 5574 5575 5575 5576 5577 5578 5578 5579 5579 5580 5580 5581 5582 5583 5583 5583 5583 5583 5584 5584 5584 5583 5583 5583 5582 5581 5580 5580 5579 5579 5578 5578 5577 5576 5575 5573 5571 5569 5567 5564 5562 5559 5555 5551 5547 5543 5540 5537 5535 5533 5531 5529 5527
5535 5536 5536 5537 5538 5540 5541 5543 5544 5545 5547 5548 5550 5552 5553 5554 5555 5556 5557 5557 5558 5559 5560 5561 5562 5562 5563 5564 5565 5565 5566 5567 5568 5569 5569 5570 5571 5572 5573 5573 5573 5574 5575 5576 5576 5577 5577 5578 5578 5578 5578 5579 5579 5579 5578 5578 5577 5577 5576 5576 5576 5576 5575 5574 5573 5572 5570 5569 5566 5564 5561 5558 5555 5551 5547 5543 5539 5536 5533 5531 5529 5527 5525 5524 5522
5526 5527 5528 5530 5531 5533 5534 5536 5537 5538 5539 5541 5543 5545 5546 5547 5548 5549 5550 5551 5552 5552 5553 5554 5555 5556 5557 5558 5559 5559 5560 5561 5562 5563 5564 5564 5565 5566 5567 5567 5568 5569 5570 5570 5571 5571 5572 5572 5573 5573 5574 5574 5574 5574 5574 5574 5573 5573 5573 5573 5573 5573 5572 5571 5570 5568 5566 5564 5562 5559 5555 5552 5548 5544 5539 5536 5533 5531 5529 5527 5525 5523 5521 5520 5518
5517 5519 5520 5522 5524 5525 5527 5528 5530 5531 5533 5534 5536 5537 5539 5540 5542 5543 5544 5545 5545 5546 5547 5548 5549 5550 5551 5552 5553 5554 5554 5555 5556 5557 5558 5559 5559 5560 5561 5562 5563 5564 5564 5565 5566 5566 5567 5567 5568 5568 5569 5569 5570 5570 5570 5570 5570 5570 5571 5571 5571 5570 5569 5568 5566 5564 5562 5560 5556 5553 5549 5545 5541 5537 5534 5531 5529 5527 5525 5523 5521 5519 5518 5516 5514
5509 5511 5512 5514 5516 5517 5519 5521 5523 5525 5526 5528 5529 5531 5533 5534 5535 5536 5537 5538 5539 5540 5541 5542 5543 5543 5545 5546 5547 5548 5548 5549 5551 5552 5553 5553 5554 5555 5556 5557 5558 5558 5559 5560 5561 5562 5562 5563 5563 5564 5565 5565 5566 5566 5566 5567 5567 5568 5568 5568 5568 5567 5566 5565 5563 5561 5558 5555 5551 5547 5543 5539 5536 5533 5530 5528 5526 5524 5522 5520 5518 5516 5514 5512 5510
5502 5504 5505 5506 5508 5510 5512 5514 5516 5518 5519 5521 5523 5525 5526 5528 5529 5530 5531 5532 5533 5534 5535 5536 5537 5538 5539 5540 5541 5542 5543 5544 5546 5547 5548 5548 5550 5551 5552 5552 5553 5554 5555 5556 5556 5557 5558 5558 5559 5560 5561 5562 5562 5563 5564 5564 5565 5565 5565 5565 5565 5564 5563 5561 5559 5557 5554 5550 5547 5542 5538 5535 5532 5530 5527 5525 5523 5521 5519 5517 5515 5513 5510 5508 5506
5496 5496 5498 5499 5501 5503 5505 5507 5509 5511 5513 5515 5517 5519 5520 5522 5523 5524 5525 5526 5527 5528 5529 5530 5531 5533 5534 5535 5536 5537 5539 5540 5541 5542 5543 5544 5545 5546 5547 5548 5549 5550 5551 5551 5552 5553 5554 5555 5556 5557 5558 5559 5560 5560 5561 5562 5562 5562 5563 5562 5562 5561 5559 5557 5555 5553 5549 5546 5542 5538 5534 5531 5529 5527 5525 5523 5520 5518 5516 5514 5512 5510 5507 5505 5503
5490 5490 5492 5493 5495 5497 5499 5500 5503 5505 5507 5509 5511 5513 5514 5515 5517 5518 5519 5520 5521 5522 5523 5525 5526 5527 5529 5530 5531 5533 5534 5535 5536 5537 5538 5540 5541 5542 5543 5544 5545 5546 5547 5548 5549 5550 5552 5553 5554 5555 5556 5557 5557 5558 5559 5559 5560 5560 5560 5559 5559 5557 5556 5553 5551 5548 5545 5542 5538 5534 5530 5528 5526 5524 5522 5520 5518 5516 5514 5511 5509 5507 5504 5501 5499
5485 5486 5487 5489 5490 5491 5493 5495 5497 5499 5501 5503 5505 5506 5508 5510 5511 5512 5513 5515 5516 5517 5518 5520 5521 5522 5524 5525 5527 5529 5530 5531 5533 5534 5535 5537 5538 5539 5540 5542 5543 5544 5545 5546 5547 5549 5550 5551 5552 5552 5553 5554 5555 5555 5556 5557 5557 5557 5557 5556 5555 5554 5552 5550 5547 5545 5542 5539 5535 5531 5528 5525 5523 5522 5520 5519 5516 5514 5512 5509 5506 5504 5502 5499 5496
5482 5483 5484 5485 5486 5487 5489 5491 5492 5494 5496 5498 5499 5501 5503 5504 5506 5507 5508 5510 5511 5512 5514 5515 5516 5518 5520 5521 5523 5525 5527 5529 5530 5532 5533 5535 5536 5537 5538 5540 5541 5542 5543 5545 5546 5547 5548 5548 5549 5550 5551 5552 5552 5553 5554 5554 5554 5555 5554 5554 5552 5551 5549 5546 5544 5542 5539 5536 5532 5528 5525 5523 5521 5520 5518 5516 5514 5512 5509 5507 5504 5501 5499 5496 5494
5479 5480 5481 5482 5483 5484 5485 5487 5488 5490 5491 5493 5495 5496 5498 5500 5501 5503 5504 5506 5507 5508 5510 5511 5513 5515 5517 5519 5521 5523 5525 5527 5529 5531 5532 5533 5534 5536 5537 5538 5539 5541 5542 5543 5544 5545 5546 5546 5547 5548 5549 5549 5550 5551 5551 5552 5552 5552 5552 5551 5549 5547 5545 5543 5541 5539 5536 5533 5529 5526 5523 5521 5519 5518 5516 5514 5512 5510 5507 5505 5502 5499 5497 5494 5491
5477 5478 5479 5480 5481 5482 5483 5484 5485 5487 5488 5490 5492 5493 5495 5497 5498 5500 5501 5503 5504 5506 5507 5509 5511 5513 5515 5517 5519 5521 5524 5526 5528 5529 5530 5532 5533 5534 5535 5536 5538 5539 5540 5541 5542 5543 5543 5544 5545 5546 5547 5547 5548 5548 5549 5549 5550 5549 5549 5548 5546 5544 5543 5541 5539 5536 5534 5531 5527 5524 5520 5518 5517 5515 5514 5512 5510 5508 5506 5503 5500 5497 5495 5492 5489
5477 5478 5479 5480 5480 5481 5482 5482 5483 5485 5486 5488 5490 5492 5494 5495 5497 5499 5501 5502 5504 5506 5507 5509 5511 5512 5514 5516 5518 5520 5523 5525 5526 5528 5529 5530 5531 5533 5534 5535 5536 5537 5538 5539 5540 5541 5541 5542 5543 5544 5544 5545 5545 5546 5546 5547 5547 5546 5546 5545 5543 5542 5540 5539 5536 5534 5532 5529 5525 5522 5518 5516 5515 5513 5512 5510 5508 5507 5504 5502 5499 5496 5493 5490 5488
5477 5478 5479 5480 5480 5481 5481 5482 5483 5484 5486 5488 5490 5491 5493 5495 5497 5499 5501 5502 5504 5506 5507 5509 5511 5512 5514 5515 5518 5520 5522 5523 5525 5526 5527 5528 5529 5531 5532 5533 5534 5535 5536 5537 5538 5539 5539 5540 5541 5541 5542 5543 5543 5544 5544 5544 5544 5544 5543 5542 5541 5539 5538 5536 5534 5532 5530 5527 5524 5520 5517 5514 5512 5511 5510 5508 5507 5505 5503 5501 5498 5495 5492 5489 5487
5478 5478 5479 5480 5480 5481 5481 5482 5483 5484 5486 5488 5490 5492 5494 5496 5497 5499 5500 5502 5504 5505 5507 5508 5510 5511 5513 5515 5517 5519 5520 5521 5523 5524 5525 5526 5527 5529 5530 5531 5533 5534 5535 5535 5536 5537 5537 5538 5538 5539 5540 5540 5541 5541 5541 5542 5541 5541 5541 5540 5538 5537 5536 5534 5532 5531 5528 5526 5523 5520 5516 5513 5511 5509 5508 5506 5505 5504 5502 5500 5497 5494 5491 5489 5486
5478 5479 5479 5480 5481 5481 5482 5483 5484 5485 5487 5489 5491 5492 5494 5496 5497 5499 5500 5501 5503 5504 5506 5507 5509 5510 5512 5514 5515 5517 5518 5520 5521 5522 5523 5525 5526 5527 5529 5530 5531 5532 5533 5533 5534 5534 5535 5536 5536 5537 5537 5538 5538 5539 5539 5539 5539 5538 5538 5537 5536 5535 5533 5532 5530 5528 5527 5524 5522 5519 5515 5512 5509 5507 5506 5504 5503 5502 5500 5498 5496 5493 5491 5488 5486
5479 5480 5480 5481 5481 5482 5483 5484 5485 5487 5488 5489 5491 5492 5494 5495 5497 5498 5499 5500 5502 5503 5504 5506 5508 5509 5511 5512 5514 5515 5517 5518 5520 5521 5522 5523 5525 5526 5527 5528 5529 5530 5531 5531 5532 5532 5533 5533 5534 5534 5535 5535 5536 5536 5536 5536 5536 5535 5535 5534 5533 5532 5531 5529 5528 5526 5525 5523 5521 5518 5515 5512 5509 5506 5504 5502 5501 5500 5498 5497 5495 5493 5490 5488 5486
5481 5481 5482 5482 5483 5484 5485 5486 5487 5488 5489 5490 5492 5493 5494 5495 5496 5497 5498 5499 5501 5502 5503 5505 5506 5508 5509 5511 5512 5514 5515 5517 5518 5519 5521 5522 5524 5525 5526 5527 5527 5528 5529 5529 5529 5530 5530 5531 5531 5532 5532 5532 5533 5533 5533 5533 5532 5532 5532 5531 5530 5530 5529 5527 5526 5524 5523 5521 5519 5516 5514 5511 5508 5505 5503 5500 5499 5498 5497 5495 5494 5492 5490 5487 5485
5483 5483 5484 5484 5485 5486 5486 5487 5488 5490 5491 5491 5492 5493 5494 5495 5495 5496 5497 5498 5500 5501 5502 5504 5505 5507 5508 5510 5511 5512 5514 5515 5517 5518 5520 5521 5522 5523 5524 5525 5525 5526 5526 5527 5527 5527 5528 5528 5529 5529 5530 5530 5530 5530 5530 5530 5529 5529 5528 5528 5527 5527 5526 5525 5524 5523 5521 5519 5517 5515 5512 5510 5507 5505 5502 5499 5497 5496 5495 5493 5492 5491 5489 5487 5485
5486 5486 5486 5487 5487 5488 5488 5489 5490 5491 5492 5492 5493 5494 5494 5495 5496 5496 5497 5498 5499 5500 5502 5503 5504 5506 5507 5509 5510 5512 5513 5515 5516 5517 5518 5519 5520 5521 5522 5523 5523 5523 5524 5524 5525 5525 5525 5526 5526 5527 5527 5527 5527 5527 5527 5527 5526 5526 5526 5525 5524 5524 5523 5523 5522 5521 5519 5518 5515 5513 5511 5509 5506 5504 5501 5499 5496 5494 5493 5492 5491 5489 5488 5486 5485
5488 5488 5489 5489 5489 5490 5490 5490 5491 5492 5492 5493 5493 5494 5495 5495 5496 5497 5498 5498 5499 5500 5502 5503 5504 5506 5507 5508 5510 5511 5513 5514 5515 5516 5517 5517 5518 5519 5520 5520 5521 5521 5521 5522 5522 5523 5523 5523 5524 5524 5524 5524 5525 5524 5524 5524 5524 5523 5523 5522 5522 5521 5521 5520 5519 5518 5517 5516 5514 5512 5510 5508 5505 5503 5500 5498 5495 5493 5491 5490 5489 5488 5487 5486 5484